Vertical_Velocity
-3 -3 1 -1 2 -1 -1 -1 -0 -2 -1 0 -2 -2 -1 -1 -0 -0 0 -2 -1 -0 -0 -0 -1 -1 -0 -1 -1 -1 -2 -1 -1
-0 -0 0 0 -1 -1 -1 -1 -2 -1 -1 -1 -2 -2 1 -1 0 -1 -0 -1 -0 -1 -1 -1 -1 -1 -1 -2 -2 -1 -1 -2 -2
-1 -2 0 0 -0 -0 -0 -3 -1 0 -1 -1 -1 -1 1 0 1 -2 -0 -1 -0 -0 -1 -1 -1 -0 0 0 -1 -1 -1 -2 -2
-2 -4 -3 -0 -1 -1 1 -2 -2 -1 -2 -0 -2 -0 1 1 -0 -2 -1 -0 -1 -1 -0 -1 0 -1 0 1 -0 -1 0 0 -0
1 -1 -3 -2 -2 1 0 -1 -0 -1 -2 -3 -2 -3 -1 -1 1 -1 -1 -2 -1 -0 -1 -1 -0 -0 -1 -0 -2 -2 1 -1 -3
2 1 0 -3 -1 0 -3 -1 -1 -1 -2 -3 -1 -2 -2 -1 -0 -1 -1 -1 -2 -1 -1 0 -0 -1 -0 -0 -1 -2 -1 1 -2
-1 0 4 -2 1 -0 -3 -2 2 0 -0 -3 -1 -2 -2 0 -0 -1 -0 -1 -1 0 -2 -0 -0 -0 -0 0 0 0 -1 -0 -0
-1 -3 2 2 0 -2 -3 -2 -1 1 1 -0 -1 -0 -3 0 -0 -0 -0 -1 -1 -2 -1 -0 -1 -0 -0 0 -0 -0 1 -0 -0
-1 -2 -3 -1 1 1 -1 1 2 1 0 0 -0 -0 -1 -0 -1 -1 -1 -1 -1 -1 -2 -0 -1 0 2 1 1 -2 -0 -0 -1
-0 0 -1 -1 -2 -3 -1 -0 -1 1 1 0 0 1 1 1 1 0 -0 -1 -1 -1 0 -0 -0 0 -1 -0 2 -1 -1 -1 1
1 -1 1 2 2 2 1 1 0 2 1 1 -0 -2 -1 0 2 1 1 0 -0 0 -0 -0 -1 1 -1 0 -1 0 2 1 -0
-1 1 -1 0 0 1 0 -1 1 -0 -0 -0 -1 -1 -2 -2 -1 0 0 -0 -1 -1 -2 -2 0 1 1 2 -0 -1 -0 1 -0
1 0 1 1 -0 -0 0 -0 -1 -1 1 1 1 1 0 -1 -1 -1 -1 0 1 0 1 2 -0 -0 -5 -0 1 -1 -1 -2 -2
-1 -2 -0 -1 -1 -2 -2 -2 1 0 1 1 -0 1 -0 -0 -0 2 1 2 -0 -1 2 -1 -2 1 -0 0 -0 -3 -0 3 1
-2 -2 -1 -1 -2 -1 -1 -1 -1 -1 -1 -1 -0 1 2 1 0 2 -1 -1 0 -2 -1 3 1 0 -1 -2 1 1 13 -4 -1
1 2 1 0 1 1 3 1 -0 0 1 0 -0 -0 0 -1 -1 -2 -1 -0 1 1 -0 -1 -0 0 -0 -3 -0 -2 1 15 7
-1 -3 1 1 1 1 -0 1 1 2 1 1 2 -2 -3 -2 2 -1 5 2 1 1 1 -0 -2 -1 1 1 2 0 1 -3 8
3 1 -3 -3 1 3 4 -3 -0 0 2 -0 -1 -1 -2 1 1 -2 -4 4 1 -1 -1 -2 -3 -1 1 1 -2 0 0 1 0
-2 5 12 -16 -1 -4 0 10 -8 1 -1 3 -1 -1 1 1 -0 3 -1 -1 0 0 -4 1 -1 3 -2 -3 -6 -3 0 1 0
-1 -3 -3 -5 7 4 6 -11 -7 -0 4 2 -9 2 3 2 3 -1 -1 -1 -2 0 -2 1 -0 -3 5 -3 3 -2 -2 2 3
Height
1554 1557 1559 1560 1562 1564 1567 1570 1572 1573 1574 1575 1576 1577 1577 1577 1577 1577 1576 1575 1575 1575 1574 1574 1573 1573 1572 1571 1570 1570 1569 1568 1567
1553 1558 1560 1563 1565 1566 1569 1572 1574 1575 1576 1577 1578 1579 1579 1579 1579 1578 1578 1577 1577 1577 1576 1576 1575 1575 1574 1573 1572 1572 1571 1570 1570
1555 1559 1563 1565 1567 1569 1571 1574 1575 1577 1578 1579 1580 1581 1581 1582 1581 1580 1580 1579 1580 1579 1579 1578 1577 1577 1576 1575 1575 1574 1573 1573 1572
1557 1561 1565 1567 1569 1572 1574 1576 1578 1579 1580 1581 1582 1583 1583 1584 1583 1583 1582 1582 1582 1582 1581 1580 1580 1579 1579 1578 1578 1577 1576 1575 1575
1559 1562 1565 1568 1571 1574 1576 1578 1580 1581 1582 1583 1584 1585 1585 1586 1585 1585 1584 1584 1584 1584 1583 1583 1582 1582 1581 1580 1580 1580 1579 1578 1577
1560 1563 1566 1569 1572 1575 1578 1580 1581 1583 1583 1584 1585 1586 1586 1587 1587 1587 1587 1586 1586 1586 1585 1585 1584 1584 1583 1583 1582 1581 1581 1580 1579
1561 1564 1568 1571 1574 1576 1579 1581 1582 1583 1584 1584 1586 1587 1588 1588 1588 1588 1588 1588 1587 1587 1587 1586 1586 1585 1585 1584 1584 1583 1582 1582 1581
1563 1565 1569 1571 1574 1577 1579 1580 1582 1583 1584 1585 1587 1587 1588 1589 1589 1589 1589 1589 1589 1588 1588 1587 1587 1586 1585 1585 1585 1584 1584 1583 1582
1563 1567 1569 1572 1574 1577 1579 1581 1582 1584 1585 1586 1586 1587 1588 1589 1590 1590 1589 1589 1589 1589 1588 1588 1587 1587 1587 1586 1585 1585 1584 1584 1583
1562 1566 1569 1572 1574 1577 1579 1581 1583 1584 1585 1586 1586 1587 1588 1589 1589 1589 1589 1589 1589 1589 1589 1588 1588 1587 1587 1587 1586 1586 1585 1584 1583
1563 1565 1568 1571 1574 1577 1579 1581 1583 1584 1585 1586 1586 1587 1588 1589 1589 1589 1589 1589 1589 1589 1589 1588 1588 1588 1587 1587 1586 1585 1584 1584 1583
1562 1565 1567 1570 1573 1576 1578 1580 1582 1583 1584 1585 1586 1587 1587 1587 1588 1588 1588 1588 1588 1588 1588 1588 1588 1587 1586 1586 1586 1585 1584 1584 1582
1562 1564 1567 1569 1572 1575 1577 1579 1580 1582 1583 1584 1584 1585 1585 1585 1585 1585 1586 1587 1587 1587 1587 1587 1587 1587 1586 1585 1585 1584 1583 1583 1583
1562 1564 1567 1569 1571 1573 1575 1577 1579 1580 1581 1582 1582 1582 1582 1583 1583 1583 1584 1584 1585 1586 1586 1585 1585 1585 1585 1585 1584 1583 1582 1582 1581
1560 1562 1565 1567 1569 1571 1572 1575 1577 1578 1579 1580 1580 1579 1579 1579 1580 1580 1580 1581 1582 1583 1584 1583 1583 1583 1583 1583 1583 1582 1581 1580 1580
1557 1560 1562 1565 1568 1570 1571 1573 1574 1575 1576 1577 1577 1576 1576 1576 1576 1577 1577 1577 1578 1578 1580 1581 1581 1581 1581 1581 1581 1580 1580 1578 1576
1555 1558 1560 1562 1565 1567 1568 1570 1571 1573 1574 1574 1575 1575 1574 1572 1573 1573 1574 1574 1575 1575 1576 1577 1578 1578 1578 1578 1578 1578 1578 1577 1575
1553 1553 1556 1561 1563 1564 1565 1567 1569 1570 1570 1570 1572 1572 1571 1570 1570 1570 1572 1572 1571 1572 1573 1573 1574 1575 1575 1576 1576 1575 1574 1573 1573
1547 1551 1549 1555 1559 1560 1562 1563 1564 1566 1566 1566 1568 1569 1569 1568 1568 1568 1568 1569 1569 1569 1569 1569 1570 1570 1570 1571 1571 1570 1569 1568 1567
1542 1544 1546 1551 1555 1556 1554 1555 1559 1560 1562 1559 1564 1566 1565 1564 1565 1564 1563 1565 1565 1565 1564 1564 1565 1565 1566 1566 1566 1566 1565 1564 1562